Time,TemperatureF,DewpointF,PressureIn,WindDirection,WindDirectionDegrees,WindSpeedMPH,WindSpeedGustMPH,Humidity,HourlyPrecipIn,Conditions,Clouds,dailyrainin,SoftwareType,DateUTC
2013-02-07 00:02:00,47.7,45.2,29.90,South,187,0.0,0.0,91,0.00,,,-99.99,Meteorologica,2013-02-07 06:02:00,
2013-02-07 00:07:00,47.7,45.2,29.90,South,187,0.0,0.0,91,0.00,,,-99.99,Meteorologica,2013-02-07 06:07:00,
2013-02-07 00:12:00,47.9,45.4,29.90,South,187,0.0,0.0,91,0.00,,,-99.99,Meteorologica,2013-02-07 06:12:00,
2013-02-07 00:17:00,47.9,45.5,29.90,South,187,0.0,0.0,91,0.00,,,-99.99,Meteorologica,2013-02-07 06:17:00,
2013-02-07 00:22:00,48.1,45.6,29.90,South,187,0.0,0.0,91,0.00,,,-99.99,Meteorologica,2013-02-07 06:22:00,
2013-02-07 00:27:00,48.2,45.9,29.90,South,187,0.0,0.0,91,0.00,,,-99.99,Meteorologica,2013-02-07 06:27:00,
2013-02-07 00:32:00,48.4,46.1,29.90,South,187,0.0,0.0,91,0.00,,,-99.99,Meteorologica,2013-02-07 06:32:00,
2013-02-07 00:37:00,48.3,46.0,29.91,South,187,0.0,0.0,91,0.00,,,-99.99,Meteorologica,2013-02-07 06:37:00,
2013-02-07 00:42:00,48.3,45.9,29.91,South,187,0.0,0.0,91,0.00,,,-99.99,Meteorologica,2013-02-07 06:42:00,
2013-02-07 00:47:00,48.3,46.0,29.90,South,187,0.0,0.0,91,0.00,,,-99.99,Meteorologica,2013-02-07 06:47:00,
2013-02-07 00:52:00,48.6,46.3,29.90,South,187,0.0,0.0,91,0.00,,,-99.99,Meteorologica,2013-02-07 06:52:00,
2013-02-07 00:57:00,48.6,46.3,29.90,South,187,0.0,0.0,91,0.00,,,-99.99,Meteorologica,2013-02-07 06:57:00,
2013-02-07 01:02:00,48.6,46.3,29.90,South,187,0.0,0.0,91,0.00,,,-99.99,Meteorologica,2013-02-07 07:02:00,
2013-02-07 01:07:00,48.5,46.3,29.90,South,187,0.0,0.0,91,0.00,,,-99.99,Meteorologica,2013-02-07 07:07:00,
2013-02-07 01:12:00,48.5,46.2,29.90,South,187,0.0,0.0,91,0.00,,,-99.99,Meteorologica,2013-02-07 07:12:00,
2013-02-07 01:17:00,48.2,45.8,29.90,South,187,0.0,0.0,91,0.00,,,-99.99,Meteorologica,2013-02-07 07:17:00,
2013-02-07 01:22:00,48.0,45.7,29.89,South,187,0.0,0.0,91,0.00,,,-99.99,Meteorologica,2013-02-07 07:22:00,
2013-02-07 01:27:00,47.7,45.5,29.90,South,187,0.0,0.0,92,0.00,,,-99.99,Meteorologica,2013-02-07 07:27:00,
2013-02-07 01:32:00,47.5,45.3,29.89,South,187,0.0,0.0,92,0.00,,,-99.99,Meteorologica,2013-02-07 07:32:00,
2013-02-07 01:37:00,47.4,45.1,29.89,South,187,0.0,0.0,92,0.00,,,-99.99,Meteorologica,2013-02-07 07:37:00,
2013-02-07 01:42:00,47.3,45.1,29.89,South,187,0.0,0.0,92,0.00,,,-99.99,Meteorologica,2013-02-07 07:42:00,
2013-02-07 01:47:00,47.2,45.0,29.89,South,187,0.0,0.0,92,0.00,,,-99.99,Meteorologica,2013-02-07 07:47:00,
2013-02-07 01:52:00,47.1,44.9,29.88,South,187,0.0,0.0,92,0.00,,,-99.99,Meteorologica,2013-02-07 07:52:00,
2013-02-07 01:57:00,47.0,44.8,29.88,South,187,0.0,0.0,92,0.00,,,-99.99,Meteorologica,2013-02-07 07:57:00,
2013-02-07 02:02:00,46.8,44.7,29.87,South,187,0.0,0.0,92,0.00,,,-99.99,Meteorologica,2013-02-07 08:02:00,
2013-02-07 02:07:00,46.4,44.3,29.87,South,187,0.0,0.0,92,0.00,,,-99.99,Meteorologica,2013-02-07 08:07:00,
2013-02-07 02:12:00,46.3,44.3,29.87,South,187,0.0,0.0,92,0.00,,,-99.99,Meteorologica,2013-02-07 08:12:00,
2013-02-07 02:17:00,46.1,44.1,29.88,South,187,0.0,0.0,92,0.00,,,-99.99,Meteorologica,2013-02-07 08:17:00,
2013-02-07 02:22:00,46.2,44.4,29.87,South,187,0.0,0.0,93,0.00,,,-99.99,Meteorologica,2013-02-07 08:22:00,
2013-02-07 02:27:00,46.3,44.4,29.88,South,187,0.0,0.0,93,0.00,,,-99.99,Meteorologica,2013-02-07 08:27:00,
2013-02-07 02:32:00,46.4,44.5,29.88,South,187,0.0,0.0,93,0.00,,,-99.99,Meteorologica,2013-02-07 08:32:00,
2013-02-07 02:37:00,46.4,44.5,29.87,North,4,0.0,3.0,93,0.00,,,-99.99,Meteorologica,2013-02-07 08:37:00,
2013-02-07 02:42:00,46.5,44.7,29.88,North,4,0.0,0.0,93,0.00,,,-99.99,Meteorologica,2013-02-07 08:42:00,
2013-02-07 02:47:00,46.7,44.9,29.87,North,4,0.0,0.0,93,0.00,,,-99.99,Meteorologica,2013-02-07 08:47:00,
2013-02-07 02:52:00,46.9,45.1,29.88,North,4,0.0,0.0,93,0.00,,,-99.99,Meteorologica,2013-02-07 08:52:00,
2013-02-07 02:57:00,47.1,45.3,29.88,North,4,0.0,0.0,93,0.00,,,-99.99,Meteorologica,2013-02-07 08:57:00,
2013-02-07 03:02:00,47.2,45.3,29.87,North,4,0.0,0.0,93,0.00,,,-99.99,Meteorologica,2013-02-07 09:02:00,
2013-02-07 03:07:00,47.2,45.3,29.87,North,4,0.0,0.0,93,0.00,,,-99.99,Meteorologica,2013-02-07 09:07:00,
2013-02-07 03:12:00,47.2,45.4,29.87,North,4,0.0,0.0,93,0.00,,,-99.99,Meteorologica,2013-02-07 09:12:00,
2013-02-07 03:17:00,47.2,45.4,29.87,North,4,0.0,0.0,93,0.00,,,-99.99,Meteorologica,2013-02-07 09:17:00,
2013-02-07 03:19:00,47.3,45.5,29.88,North,4,0.0,0.0,93,0.00,,,-99.99,Meteorologica,2013-02-07 09:19:00,
2013-02-07 03:24:00,47.3,45.5,29.88,North,4,0.0,0.0,93,0.00,,,-99.99,Meteorologica,2013-02-07 09:24:00,
2013-02-07 03:29:00,47.5,45.6,29.88,North,4,0.0,0.0,93,0.00,,,-99.99,Meteorologica,2013-02-07 09:29:00,
2013-02-07 03:34:00,47.5,45.6,29.88,WSW,239,4.7,5.4,93,0.00,,,-99.99,Meteorologica,2013-02-07 09:34:00,
2013-02-07 03:39:00,47.6,45.6,29.88,SE,128,3.6,5.3,92,0.00,,,-99.99,Meteorologica,2013-02-07 09:39:00,
2013-02-07 03:44:00,47.5,45.4,29.88,SE,133,4.3,5.6,92,0.00,,,-99.99,Meteorologica,2013-02-07 09:44:00,
2013-02-07 03:49:00,47.3,45.2,29.88,NNW,341,2.4,4.6,92,0.00,,,-99.99,Meteorologica,2013-02-07 09:49:00,
2013-02-07 03:54:00,47.0,44.9,29.88,North,359,2.8,4.6,92,0.00,,,-99.99,Meteorologica,2013-02-07 09:54:00,
2013-02-07 03:59:00,46.8,44.7,29.88,North,4,1.1,5.5,92,0.00,,,-99.99,Meteorologica,2013-02-07 09:59:00,
2013-02-07 04:04:00,46.6,44.6,29.88,SE,144,4.6,5.6,92,0.00,,,-99.99,Meteorologica,2013-02-07 10:04:00,
2013-02-07 04:09:00,46.4,44.4,29.89,North,1,4.1,5.6,92,0.00,,,-99.99,Meteorologica,2013-02-07 10:09:00,
2013-02-07 04:14:00,46.4,44.4,29.89,North,358,4.8,7.3,92,0.00,,,-99.99,Meteorologica,2013-02-07 10:14:00,
2013-02-07 04:19:00,46.3,44.2,29.89,North,7,4.1,5.4,92,0.00,,,-99.99,Meteorologica,2013-02-07 10:19:00,
2013-02-07 04:24:00,46.1,44.1,29.90,SE,128,5.6,7.2,92,0.00,,,-99.99,Meteorologica,2013-02-07 10:24:00,
2013-02-07 04:29:00,45.8,43.8,29.90,North,349,5.1,6.9,92,0.00,,,-99.99,Meteorologica,2013-02-07 10:29:00,
2013-02-07 04:34:00,45.6,43.6,29.90,North,11,4.5,5.6,92,0.00,,,-99.99,Meteorologica,2013-02-07 10:34:00,
2013-02-07 04:39:00,45.3,43.2,29.90,NNE,14,3.0,4.6,92,0.00,,,-99.99,Meteorologica,2013-02-07 10:39:00,
2013-02-07 04:44:00,45.1,43.0,29.91,NW,325,4.9,7.1,92,0.00,,,-99.99,Meteorologica,2013-02-07 10:44:00,
2013-02-07 04:49:00,45.0,42.7,29.91,ESE,115,2.6,5.4,91,0.00,,,-99.99,Meteorologica,2013-02-07 10:49:00,
2013-02-07 04:54:00,44.8,42.4,29.92,North,352,4.0,6.1,91,0.00,,,-99.99,Meteorologica,2013-02-07 10:54:00,
2013-02-07 04:59:00,44.6,42.3,29.92,NNW,339,3.7,5.5,91,0.00,,,-99.99,Meteorologica,2013-02-07 10:59:00,
2013-02-07 05:04:00,44.4,42.1,29.93,NNW,337,4.3,5.8,91,0.00,,,-99.99,Meteorologica,2013-02-07 11:04:00,
2013-02-07 05:09:00,44.2,42.0,29.93,North,7,3.7,5.2,92,0.00,,,-99.99,Meteorologica,2013-02-07 11:09:00,
2013-02-07 05:14:00,44.1,41.9,29.93,North,353,5.8,8.2,92,0.00,,,-99.99,Meteorologica,2013-02-07 11:14:00,
2013-02-07 05:19:00,43.9,41.6,29.93,ESE,122,5.3,7.9,91,0.00,,,-99.99,Meteorologica,2013-02-07 11:19:00,
2013-02-07 05:24:00,43.7,41.4,29.93,SE,129,5.6,7.8,91,0.00,,,-99.99,Meteorologica,2013-02-07 11:24:00,
2013-02-07 05:29:00,43.4,41.1,29.93,ESE,119,5.9,8.5,91,0.00,,,-99.99,Meteorologica,2013-02-07 11:29:00,
2013-02-07 05:34:00,43.3,41.0,29.93,SW,233,6.4,9.2,91,0.00,,,-99.99,Meteorologica,2013-02-07 11:34:00,
2013-02-07 05:39:00,43.1,40.7,29.93,NNW,337,3.0,5.5,91,0.00,,,-99.99,Meteorologica,2013-02-07 11:39:00,
2013-02-07 05:44:00,42.8,40.3,29.94,ESE,120,5.8,8.2,91,0.00,,,-99.99,Meteorologica,2013-02-07 11:44:00,
2013-02-07 05:49:00,42.8,40.2,29.94,WSW,244,5.7,7.8,90,0.00,,,-99.99,Meteorologica,2013-02-07 11:49:00,
2013-02-07 05:54:00,42.6,39.9,29.93,North,349,5.7,6.8,90,0.00,,,-99.99,Meteorologica,2013-02-07 11:54:00,
2013-02-07 05:59:00,42.5,39.8,29.94,North,358,5.2,6.8,90,0.00,,,-99.99,Meteorologica,2013-02-07 11:59:00,
2013-02-07 06:04:00,42.3,39.5,29.94,North,353,5.3,6.4,90,0.00,,,-99.99,Meteorologica,2013-02-07 12:04:00,
2013-02-07 06:09:00,42.2,39.2,29.94,North,359,5.1,7.7,89,0.00,,,-99.99,Meteorologica,2013-02-07 12:09:00,
2013-02-07 06:14:00,42.1,39.1,29.95,NNE,16,5.7,9.0,89,0.00,,,-99.99,Meteorologica,2013-02-07 12:14:00,
2013-02-07 06:19:00,42.0,39.0,29.94,WSW,238,5.7,7.8,89,0.00,,,-99.99,Meteorologica,2013-02-07 12:19:00,
2013-02-07 06:24:00,41.8,38.4,29.96,NNW,348,4.4,5.3,87,0.00,,,-99.99,Meteorologica,2013-02-07 12:24:00,
2013-02-07 06:29:00,41.6,38.2,29.96,SW,234,5.5,9.4,87,0.00,,,-99.99,Meteorologica,2013-02-07 12:29:00,
2013-02-07 06:34:00,41.4,37.8,29.96,NNW,343,5.4,6.4,87,0.00,,,-99.99,Meteorologica,2013-02-07 12:34:00,
2013-02-07 06:39:00,41.3,37.7,29.95,NNW,339,5.0,6.8,87,0.00,,,-99.99,Meteorologica,2013-02-07 12:39:00,
2013-02-07 06:44:00,41.1,37.6,29.96,North,349,4.2,5.8,87,0.00,,,-99.99,Meteorologica,2013-02-07 12:44:00,
2013-02-07 06:49:00,41.0,37.5,29.96,SW,234,5.9,8.6,87,0.00,,,-99.99,Meteorologica,2013-02-07 12:49:00,
2013-02-07 06:54:00,40.7,37.2,29.96,NNW,338,6.2,8.9,87,0.00,,,-99.99,Meteorologica,2013-02-07 12:54:00,
2013-02-07 06:59:00,40.7,37.0,29.97,WSW,242,6.1,9.1,86,0.00,,,-99.99,Meteorologica,2013-02-07 12:59:00,
2013-02-07 07:04:00,40.6,36.6,29.97,North,351,7.2,10.7,85,0.00,,,-99.99,Meteorologica,2013-02-07 13:04:00,
2013-02-07 07:09:00,40.7,36.8,29.97,NNW,338,5.1,7.5,86,0.00,,,-99.99,Meteorologica,2013-02-07 13:09:00,
2013-02-07 07:14:00,40.7,36.6,29.98,SW,233,6.5,9.9,84,0.00,,,-99.99,Meteorologica,2013-02-07 13:14:00,
2013-02-07 07:19:00,40.7,36.6,29.98,North,355,5.3,6.6,85,0.00,,,-99.99,Meteorologica,2013-02-07 13:19:00,
2013-02-07 07:24:00,40.6,36.4,29.98,SW,232,6.9,11.1,85,0.00,,,-99.99,Meteorologica,2013-02-07 13:24:00,
2013-02-07 07:29:00,40.6,36.4,29.99,NE,45,4.5,6.1,84,0.00,,,-99.99,Meteorologica,2013-02-07 13:29:00,
2013-02-07 07:34:00,40.6,36.2,29.98,NNW,330,7.0,10.4,84,0.00,,,-99.99,Meteorologica,2013-02-07 13:34:00,
2013-02-07 07:39:00,40.5,36.2,29.99,NNE,24,5.9,11.2,84,0.00,,,-99.99,Meteorologica,2013-02-07 13:39:00,
2013-02-07 07:44:00,40.6,36.1,29.99,NNW,348,5.2,6.4,84,0.00,,,-99.99,Meteorologica,2013-02-07 13:44:00,
2013-02-07 07:49:00,40.5,35.9,30.00,NNE,28,4.7,7.5,83,0.00,,,-99.99,Meteorologica,2013-02-07 13:49:00,
2013-02-07 07:54:00,40.5,36.0,30.00,NNW,340,5.4,7.4,83,0.00,,,-99.99,Meteorologica,2013-02-07 13:54:00,
2013-02-07 07:59:00,40.5,35.9,30.00,SE,128,6.1,8.4,83,0.00,,,-99.99,Meteorologica,2013-02-07 13:59:00,
2013-02-07 08:04:00,40.4,35.8,30.01,SW,234,6.4,10.1,83,0.00,,,-99.99,Meteorologica,2013-02-07 14:04:00,
2013-02-07 08:09:00,40.4,35.8,30.01,NE,37,6.5,8.3,83,0.00,,,-99.99,Meteorologica,2013-02-07 14:09:00,
2013-02-07 08:14:00,40.3,35.6,30.02,SW,230,6.3,8.7,83,0.00,,,-99.99,Meteorologica,2013-02-07 14:14:00,
2013-02-07 08:19:00,40.2,35.8,30.01,ESE,119,5.2,7.4,84,0.00,,,-99.99,Meteorologica,2013-02-07 14:19:00,
2013-02-07 08:24:00,40.3,35.8,30.02,ESE,122,5.0,6.9,83,0.00,,,-99.99,Meteorologica,2013-02-07 14:24:00,
2013-02-07 08:29:00,40.4,35.8,30.02,NNE,15,5.7,7.3,83,0.00,,,-99.99,Meteorologica,2013-02-07 14:29:00,
2013-02-07 08:34:00,40.5,36.1,30.01,North,350,4.6,6.8,84,0.00,,,-99.99,Meteorologica,2013-02-07 14:34:00,
2013-02-07 08:39:00,40.5,35.9,30.02,WSW,242,6.4,8.2,83,0.00,,,-99.99,Meteorologica,2013-02-07 14:39:00,
2013-02-07 08:44:00,40.6,35.9,30.02,SW,233,5.4,7.5,83,0.00,,,-99.99,Meteorologica,2013-02-07 14:44:00,
2013-02-07 08:49:00,40.4,35.7,30.02,SW,231,7.2,11.5,83,0.00,,,-99.99,Meteorologica,2013-02-07 14:49:00,
2013-02-07 08:54:00,40.5,36.0,30.02,North,8,6.4,9.8,83,0.00,,,-99.99,Meteorologica,2013-02-07 14:54:00,
2013-02-07 08:59:00,40.4,35.9,30.02,North,350,5.8,8.2,84,0.00,,,-99.99,Meteorologica,2013-02-07 14:59:00,
2013-02-07 09:04:00,40.4,35.9,30.02,ESE,117,5.0,7.7,84,0.00,,,-99.99,Meteorologica,2013-02-07 15:04:00,
2013-02-07 09:09:00,40.4,35.8,30.03,SE,144,5.9,7.3,83,0.00,,,-99.99,Meteorologica,2013-02-07 15:09:00,
2013-02-07 09:14:00,40.5,35.7,30.03,NNW,341,5.2,7.3,83,0.00,,,-99.99,Meteorologica,2013-02-07 15:14:00,
2013-02-07 09:19:00,40.6,35.5,30.03,NNE,22,7.1,9.9,81,0.00,,,-99.99,Meteorologica,2013-02-07 15:19:00,
2013-02-07 09:24:00,40.6,35.7,30.03,North,11,2.4,4.5,82,0.00,,,-99.99,Meteorologica,2013-02-07 15:24:00,
2013-02-07 09:29:00,40.7,35.5,30.03,SE,137,5.3,7.5,82,0.00,,,-99.99,Meteorologica,2013-02-07 15:29:00,
2013-02-07 09:34:00,40.6,35.5,30.03,North,353,6.7,8.7,81,0.00,,,-99.99,Meteorologica,2013-02-07 15:34:00,
2013-02-07 09:39:00,40.6,35.4,30.03,ESE,121,7.0,8.8,81,0.00,,,-99.99,Meteorologica,2013-02-07 15:39:00,
2013-02-07 09:44:00,40.7,35.6,30.03,SW,231,7.1,11.3,81,0.00,,,-99.99,Meteorologica,2013-02-07 15:44:00,
2013-02-07 09:49:00,40.8,35.4,30.03,NNW,339,8.6,13.4,80,0.00,,,-99.99,Meteorologica,2013-02-07 15:49:00,
2013-02-07 09:54:00,41.0,35.4,30.04,NW,323,8.2,14.7,80,0.00,,,-99.99,Meteorologica,2013-02-07 15:54:00,
2013-02-07 09:59:00,41.4,35.9,30.03,NNW,344,3.1,6.8,80,0.00,,,-99.99,Meteorologica,2013-02-07 15:59:00,
2013-02-07 10:04:00,41.7,36.1,30.03,SE,138,5.8,8.6,80,0.00,,,-99.99,Meteorologica,2013-02-07 16:04:00,
2013-02-07 10:09:00,41.6,35.8,30.04,NNW,343,6.9,9.9,80,0.00,,,-99.99,Meteorologica,2013-02-07 16:09:00,
2013-02-07 10:14:00,41.9,35.9,30.03,NNW,348,7.6,10.0,79,0.00,,,-99.99,Meteorologica,2013-02-07 16:14:00,
2013-02-07 10:19:00,42.4,36.2,30.04,NE,35,6.1,8.6,78,0.00,,,-99.99,Meteorologica,2013-02-07 16:19:00,
2013-02-07 10:24:00,42.9,36.6,30.04,North,353,7.6,14.8,78,0.00,,,-99.99,Meteorologica,2013-02-07 16:24:00,
2013-02-07 10:29:00,43.3,36.7,30.04,NW,311,5.3,8.5,77,0.00,,,-99.99,Meteorologica,2013-02-07 16:29:00,
2013-02-07 10:34:00,43.9,36.8,30.05,SE,127,5.6,9.7,75,0.00,,,-99.99,Meteorologica,2013-02-07 16:34:00,
2013-02-07 10:39:00,44.3,37.0,30.04,SW,228,7.0,9.7,75,0.00,,,-99.99,Meteorologica,2013-02-07 16:39:00,
2013-02-07 10:44:00,44.6,36.7,30.05,NW,325,8.9,16.0,73,0.00,,,-99.99,Meteorologica,2013-02-07 16:44:00,
2013-02-07 10:49:00,45.0,37.1,30.05,NNW,346,9.3,12.2,73,0.00,,,-99.99,Meteorologica,2013-02-07 16:49:00,
2013-02-07 10:54:00,45.6,37.6,30.05,WSW,240,7.6,10.7,73,0.00,,,-99.99,Meteorologica,2013-02-07 16:54:00,
2013-02-07 10:59:00,46.3,37.6,30.05,North,352,7.6,9.5,71,0.00,,,-99.99,Meteorologica,2013-02-07 16:59:00,
2013-02-07 11:04:00,46.2,38.1,30.05,North,6,8.2,14.1,73,0.00,,,-99.99,Meteorologica,2013-02-07 17:04:00,
2013-02-07 11:09:00,45.3,37.6,30.06,SE,143,6.8,9.2,74,0.00,,,-99.99,Meteorologica,2013-02-07 17:09:00,
2013-02-07 11:14:00,45.2,37.8,30.06,North,349,6.7,9.6,74,0.00,,,-99.99,Meteorologica,2013-02-07 17:14:00,
2013-02-07 11:19:00,45.1,37.8,30.06,SW,235,5.4,8.8,75,0.00,,,-99.99,Meteorologica,2013-02-07 17:19:00,
2013-02-07 11:24:00,45.4,37.5,30.06,NNW,332,8.6,14.4,73,0.00,,,-99.99,Meteorologica,2013-02-07 17:24:00,
2013-02-07 11:29:00,45.4,37.4,30.07,SW,234,7.8,11.0,73,0.00,,,-99.99,Meteorologica,2013-02-07 17:29:00,
2013-02-07 11:34:00,45.1,36.9,30.06,NW,311,7.3,10.4,72,0.00,,,-99.99,Meteorologica,2013-02-07 17:34:00,
2013-02-07 11:39:00,45.4,36.5,30.07,NNW,331,9.4,16.9,70,0.00,,,-99.99,Meteorologica,2013-02-07 17:39:00,
2013-02-07 11:44:00,45.6,36.8,30.07,ESE,122,8.9,15.3,70,0.00,,,-99.99,Meteorologica,2013-02-07 17:44:00,
2013-02-07 11:49:00,46.1,37.3,30.07,ESE,123,9.3,11.9,70,0.00,,,-99.99,Meteorologica,2013-02-07 17:49:00,
2013-02-07 11:54:00,46.9,37.2,30.07,North,356,8.4,13.1,68,0.00,,,-99.99,Meteorologica,2013-02-07 17:54:00,
2013-02-07 11:59:00,47.2,37.3,30.07,WSW,237,10.0,16.4,68,0.00,,,-99.99,Meteorologica,2013-02-07 17:59:00,
2013-02-07 12:04:00,47.1,38.2,30.07,SE,126,7.7,13.1,70,0.00,,,-99.99,Meteorologica,2013-02-07 18:04:00,
2013-02-07 12:09:00,46.1,37.6,30.07,North,351,6.9,10.8,71,0.00,,,-99.99,Meteorologica,2013-02-07 18:09:00,
2013-02-07 12:14:00,45.8,37.8,30.07,NNW,344,7.4,10.8,72,0.00,,,-99.99,Meteorologica,2013-02-07 18:14:00,
2013-02-07 12:19:00,46.1,37.5,30.07,NNE,33,5.9,8.5,71,0.00,,,-99.99,Meteorologica,2013-02-07 18:19:00,
2013-02-07 12:24:00,46.3,37.7,30.07,NNW,336,5.6,10.7,71,0.00,,,-99.99,Meteorologica,2013-02-07 18:24:00,
2013-02-07 12:29:00,46.4,37.5,30.06,NW,326,6.8,11.8,70,0.00,,,-99.99,Meteorologica,2013-02-07 18:29:00,
2013-02-07 12:34:00,46.6,37.4,30.06,SE,124,8.1,12.4,69,0.00,,,-99.99,Meteorologica,2013-02-07 18:34:00,
2013-02-07 12:39:00,47.3,37.1,30.06,WSW,250,10.2,13.5,67,0.00,,,-99.99,Meteorologica,2013-02-07 18:39:00,
2013-02-07 12:44:00,48.3,37.6,30.06,WSW,247,7.3,12.8,66,0.00,,,-99.99,Meteorologica,2013-02-07 18:44:00,
2013-02-07 12:49:00,49.2,38.3,30.06,NNE,20,5.1,6.8,65,0.00,,,-99.99,Meteorologica,2013-02-07 18:49:00,
2013-02-07 12:54:00,48.8,37.3,30.06,SW,234,9.7,15.3,64,0.00,,,-99.99,Meteorologica,2013-02-07 18:54:00,
2013-02-07 12:59:00,48.9,37.9,30.07,SE,124,9.4,12.1,65,0.00,,,-99.99,Meteorologica,2013-02-07 18:59:00,
2013-02-07 13:04:00,48.8,37.9,30.06,NNE,27,6.7,9.7,65,0.00,,,-99.99,Meteorologica,2013-02-07 19:04:00,
2013-02-07 13:09:00,48.9,37.8,30.06,NNW,347,10.1,13.9,65,0.00,,,-99.99,Meteorologica,2013-02-07 19:09:00,
2013-02-07 13:14:00,49.0,38.2,30.07,NNW,331,4.5,8.1,65,0.00,,,-99.99,Meteorologica,2013-02-07 19:14:00,
2013-02-07 13:19:00,49.6,38.6,30.07,NNW,328,7.0,11.1,65,0.00,,,-99.99,Meteorologica,2013-02-07 19:19:00,
2013-02-07 13:24:00,49.6,38.6,30.07,NNE,13,6.7,9.2,65,0.00,,,-99.99,Meteorologica,2013-02-07 19:24:00,
2013-02-07 13:29:00,49.5,38.4,30.06,North,2,7.1,13.9,65,0.00,,,-99.99,Meteorologica,2013-02-07 19:29:00,
2013-02-07 13:34:00,49.7,38.8,30.06,SE,139,5.3,7.3,65,0.00,,,-99.99,Meteorologica,2013-02-07 19:34:00,
2013-02-07 13:39:00,49.5,38.4,30.07,SE,133,5.5,10.9,65,0.00,,,-99.99,Meteorologica,2013-02-07 19:39:00,
2013-02-07 13:44:00,49.3,37.8,30.06,North,354,7.3,10.7,64,0.00,,,-99.99,Meteorologica,2013-02-07 19:44:00,
2013-02-07 13:49:00,49.5,38.0,30.06,NNE,27,7.7,10.0,64,0.00,,,-99.99,Meteorologica,2013-02-07 19:49:00,
2013-02-07 13:54:00,49.4,38.4,30.06,NE,43,9.1,12.8,65,0.00,,,-99.99,Meteorologica,2013-02-07 19:54:00,
2013-02-07 13:59:00,50.0,38.8,30.06,WSW,237,6.6,10.7,64,0.00,,,-99.99,Meteorologica,2013-02-07 19:59:00,
2013-02-07 14:04:00,50.1,38.5,30.06,North,7,9.6,12.2,64,0.00,,,-99.99,Meteorologica,2013-02-07 20:04:00,
2013-02-07 14:09:00,49.9,38.4,30.06,NW,322,7.7,13.2,64,0.00,,,-99.99,Meteorologica,2013-02-07 20:09:00,
2013-02-07 14:14:00,49.2,37.1,30.06,NNW,346,7.1,10.4,62,0.00,,,-99.99,Meteorologica,2013-02-07 20:14:00,
2013-02-07 14:19:00,49.3,38.1,30.06,NNW,343,5.5,7.5,64,0.00,,,-99.99,Meteorologica,2013-02-07 20:19:00,
2013-02-07 14:24:00,49.0,38.0,30.06,NNE,23,4.9,8.0,65,0.00,,,-99.99,Meteorologica,2013-02-07 20:24:00,
2013-02-07 14:29:00,49.0,37.7,30.06,NNW,346,6.3,10.2,64,0.00,,,-99.99,Meteorologica,2013-02-07 20:29:00,
2013-02-07 14:34:00,49.5,38.4,30.06,SE,138,5.6,10.8,65,0.00,,,-99.99,Meteorologica,2013-02-07 20:34:00,
2013-02-07 14:39:00,49.9,38.3,30.06,NNW,327,4.2,6.9,64,0.00,,,-99.99,Meteorologica,2013-02-07 20:39:00,
2013-02-07 14:44:00,49.8,38.0,30.06,NNE,23,9.1,12.8,63,0.00,,,-99.99,Meteorologica,2013-02-07 20:44:00,
2013-02-07 14:49:00,50.0,38.0,30.06,SE,128,7.9,10.3,62,0.00,,,-99.99,Meteorologica,2013-02-07 20:49:00,
2013-02-07 14:54:00,49.8,38.3,30.07,North,349,6.4,11.3,64,0.00,,,-99.99,Meteorologica,2013-02-07 20:54:00,
2013-02-07 14:59:00,49.6,37.8,30.07,ENE,64,8.7,14.8,63,0.00,,,-99.99,Meteorologica,2013-02-07 20:59:00,
2013-02-07 15:04:00,49.5,37.8,30.07,WSW,241,7.5,11.2,63,0.00,,,-99.99,Meteorologica,2013-02-07 21:04:00,
2013-02-07 15:09:00,49.3,37.5,30.07,NNE,18,7.2,11.7,63,0.00,,,-99.99,Meteorologica,2013-02-07 21:09:00,
2013-02-07 15:14:00,49.3,37.5,30.07,SE,125,8.0,13.1,63,0.00,,,-99.99,Meteorologica,2013-02-07 21:14:00,
2013-02-07 15:19:00,48.9,36.8,30.08,SE,141,8.7,11.3,62,0.00,,,-99.99,Meteorologica,2013-02-07 21:19:00,
2013-02-07 15:24:00,48.4,36.8,30.08,SSE,151,7.3,10.8,63,0.00,,,-99.99,Meteorologica,2013-02-07 21:24:00,
2013-02-07 15:29:00,47.9,36.8,30.08,NNW,347,8.0,11.0,64,0.00,,,-99.99,Meteorologica,2013-02-07 21:29:00,
2013-02-07 15:34:00,47.8,37.1,30.08,ESE,121,4.9,8.0,66,0.00,,,-99.99,Meteorologica,2013-02-07 21:34:00,
2013-02-07 15:39:00,47.9,36.6,30.08,NNE,24,7.2,9.5,64,0.00,,,-99.99,Meteorologica,2013-02-07 21:39:00,
2013-02-07 15:44:00,47.7,36.5,30.08,SW,231,7.4,12.2,65,0.00,,,-99.99,Meteorologica,2013-02-07 21:44:00,
2013-02-07 15:49:00,47.5,36.3,30.08,SW,228,6.8,11.5,65,0.00,,,-99.99,Meteorologica,2013-02-07 21:49:00,
2013-02-07 15:54:00,47.4,36.7,30.09,NNW,344,6.1,11.2,65,0.00,,,-99.99,Meteorologica,2013-02-07 21:54:00,
2013-02-07 15:59:00,47.2,36.3,30.09,NNE,21,6.4,11.0,65,0.00,,,-99.99,Meteorologica,2013-02-07 21:59:00,
2013-02-07 16:04:00,46.8,36.3,30.09,North,9,5.5,10.2,66,0.00,,,-99.99,Meteorologica,2013-02-07 22:04:00,
2013-02-07 16:09:00,46.9,36.6,30.09,North,359,5.4,7.6,66,0.00,,,-99.99,Meteorologica,2013-02-07 22:09:00,
2013-02-07 16:14:00,46.4,36.1,30.09,SW,222,6.4,10.7,67,0.00,,,-99.99,Meteorologica,2013-02-07 22:14:00,
2013-02-07 16:19:00,46.2,36.1,30.10,North,350,4.8,9.0,67,0.00,,,-99.99,Meteorologica,2013-02-07 22:19:00,
2013-02-07 16:24:00,46.1,36.1,30.10,NE,40,6.1,8.9,67,0.00,,,-99.99,Meteorologica,2013-02-07 22:24:00,
2013-02-07 16:29:00,45.8,36.0,30.10,NNE,19,6.7,9.5,68,0.00,,,-99.99,Meteorologica,2013-02-07 22:29:00,
2013-02-07 16:34:00,45.4,35.8,30.10,NE,37,5.2,9.4,68,0.00,,,-99.99,Meteorologica,2013-02-07 22:34:00,
2013-02-07 16:39:00,45.0,35.8,30.10,ENE,67,8.7,14.0,69,0.00,,,-99.99,Meteorologica,2013-02-07 22:39:00,
2013-02-07 16:44:00,44.6,35.5,30.11,NNE,23,5.1,9.5,70,0.00,,,-99.99,Meteorologica,2013-02-07 22:44:00,
2013-02-07 16:49:00,44.2,35.4,30.11,NNE,17,5.0,8.7,70,0.00,,,-99.99,Meteorologica,2013-02-07 22:49:00,
2013-02-07 16:54:00,43.9,35.3,30.11,ENE,73,4.9,9.0,71,0.00,,,-99.99,Meteorologica,2013-02-07 22:54:00,
2013-02-07 16:59:00,43.5,35.1,30.11,NNE,17,5.6,10.7,71,0.00,,,-99.99,Meteorologica,2013-02-07 22:59:00,
2013-02-07 17:04:00,43.2,35.1,30.12,NE,38,7.0,12.2,72,0.00,,,-99.99,Meteorologica,2013-02-07 23:04:00,
2013-02-07 17:09:00,42.6,35.0,30.12,North,9,4.4,6.9,74,0.00,,,-99.99,Meteorologica,2013-02-07 23:09:00,
2013-02-07 17:14:00,42.2,34.7,30.13,NE,40,6.8,11.1,74,0.00,,,-99.99,Meteorologica,2013-02-07 23:14:00,
2013-02-07 17:19:00,41.9,34.6,30.14,WSW,247,6.5,8.1,74,0.00,,,-99.99,Meteorologica,2013-02-07 23:19:00,
2013-02-07 17:24:00,41.5,34.4,30.14,ENE,58,6.5,10.7,75,0.00,,,-99.99,Meteorologica,2013-02-07 23:24:00,
2013-02-07 17:29:00,40.9,34.2,30.14,SE,142,5.3,10.4,76,0.00,,,-99.99,Meteorologica,2013-02-07 23:29:00,
2013-02-07 17:34:00,40.5,34.0,30.15,NNE,18,6.2,11.3,77,0.00,,,-99.99,Meteorologica,2013-02-07 23:34:00,
2013-02-07 17:39:00,40.3,34.1,30.15,ESE,113,5.7,7.6,78,0.00,,,-99.99,Meteorologica,2013-02-07 23:39:00,
2013-02-07 17:44:00,40.0,34.0,30.15,North,11,6.9,9.0,78,0.00,,,-99.99,Meteorologica,2013-02-07 23:44:00,
2013-02-07 17:49:00,39.6,33.8,30.15,WSW,240,6.6,8.8,79,0.00,,,-99.99,Meteorologica,2013-02-07 23:49:00,
2013-02-07 17:54:00,39.3,33.7,30.15,ESE,121,6.2,9.6,80,0.00,,,-99.99,Meteorologica,2013-02-07 23:54:00,
2013-02-07 17:59:00,39.0,33.6,30.16,North,3,5.3,6.9,80,0.00,,,-99.99,Meteorologica,2013-02-07 23:59:00,
2013-02-07 18:04:00,38.5,33.4,30.16,ESE,118,5.4,8.3,81,0.00,,,-99.99,Meteorologica,2013-02-08 00:04:00,
2013-02-07 18:09:00,38.2,33.2,30.16,NNE,18,4.4,8.4,82,0.00,,,-99.99,Meteorologica,2013-02-08 00:09:00,
2013-02-07 18:14:00,37.8,33.1,30.17,WSW,237,6.4,11.8,83,0.00,,,-99.99,Meteorologica,2013-02-08 00:14:00,
2013-02-07 18:19:00,37.3,32.7,30.17,NE,50,6.8,10.4,83,0.00,,,-99.99,Meteorologica,2013-02-08 00:19:00,
2013-02-07 18:24:00,37.2,32.7,30.17,NNE,15,4.6,8.3,83,0.00,,,-99.99,Meteorologica,2013-02-08 00:24:00,
2013-02-07 18:29:00,36.9,32.6,30.17,NNE,23,3.6,6.5,84,0.00,,,-99.99,Meteorologica,2013-02-08 00:29:00,
2013-02-07 18:34:00,36.7,32.6,30.17,NNE,19,3.0,6.9,85,0.00,,,-99.99,Meteorologica,2013-02-08 00:34:00,
2013-02-07 18:39:00,36.3,32.3,30.17,NNE,28,5.7,8.9,85,0.00,,,-99.99,Meteorologica,2013-02-08 00:39:00,
2013-02-07 18:44:00,36.2,32.4,30.18,ENE,70,4.5,6.5,86,0.00,,,-99.99,Meteorologica,2013-02-08 00:44:00,
2013-02-07 18:49:00,35.9,32.2,30.18,North,8,3.6,4.9,86,0.00,,,-99.99,Meteorologica,2013-02-08 00:49:00,
2013-02-07 18:54:00,35.6,32.1,30.18,NE,41,6.0,8.4,87,0.00,,,-99.99,Meteorologica,2013-02-08 00:54:00,
2013-02-07 18:59:00,35.3,32.0,30.18,NE,45,5.7,8.9,87,0.00,,,-99.99,Meteorologica,2013-02-08 00:59:00,
2013-02-07 19:04:00,35.0,31.9,30.19,SE,126,5.5,8.0,88,0.00,,,-99.99,Meteorologica,2013-02-08 01:04:00,
2013-02-07 19:09:00,34.8,31.8,30.19,NNE,12,5.1,8.6,88,0.00,,,-99.99,Meteorologica,2013-02-08 01:09:00,
2013-02-07 19:14:00,34.4,31.5,30.20,NNW,348,4.8,6.6,89,0.00,,,-99.99,Meteorologica,2013-02-08 01:14:00,
2013-02-07 19:19:00,34.3,31.4,30.20,NNE,12,0.0,0.0,89,0.00,,,-99.99,Meteorologica,2013-02-08 01:19:00,
2013-02-07 19:24:00,34.0,31.3,30.20,NNE,31,0.0,0.0,89,0.00,,,-99.99,Meteorologica,2013-02-08 01:24:00,
2013-02-07 19:29:00,33.6,31.1,30.20,NE,56,3.9,6.1,90,0.00,,,-99.99,Meteorologica,2013-02-08 01:29:00,
2013-02-07 19:34:00,33.3,30.8,30.20,NNE,28,0.8,3.0,90,0.00,,,-99.99,Meteorologica,2013-02-08 01:34:00,
2013-02-07 19:39:00,33.1,30.7,30.20,SW,235,3.7,5.6,90,0.00,,,-99.99,Meteorologica,2013-02-08 01:39:00,
2013-02-07 19:44:00,32.9,30.5,30.20,NNE,33,3.6,5.1,91,0.00,,,-99.99,Meteorologica,2013-02-08 01:44:00,
2013-02-07 19:49:00,32.6,30.3,30.20,WSW,239,3.7,5.1,91,0.00,,,-99.99,Meteorologica,2013-02-08 01:49:00,
2013-02-07 19:54:00,32.6,30.3,30.20,NNW,345,3.2,6.0,91,0.00,,,-99.99,Meteorologica,2013-02-08 01:54:00,
2013-02-07 19:59:00,32.4,30.2,30.21,ESE,120,3.6,4.8,91,0.00,,,-99.99,Meteorologica,2013-02-08 01:59:00,
2013-02-07 20:04:00,32.2,30.0,30.21,NNE,23,0.5,2.6,91,0.00,,,-99.99,Meteorologica,2013-02-08 02:04:00,
2013-02-07 20:09:00,31.9,29.7,30.21,NNW,348,3.9,5.7,91,0.00,,,-99.99,Meteorologica,2013-02-08 02:09:00,
2013-02-07 20:14:00,31.6,29.5,30.22,North,10,3.7,6.2,92,0.00,,,-99.99,Meteorologica,2013-02-08 02:14:00,
2013-02-07 20:19:00,31.5,29.5,30.21,North,11,2.6,5.1,92,0.00,,,-99.99,Meteorologica,2013-02-08 02:19:00,
2013-02-07 20:24:00,31.5,29.3,30.21,NNE,12,0.0,0.0,92,0.00,,,-99.99,Meteorologica,2013-02-08 02:24:00,
2013-02-07 20:29:00,31.3,29.2,30.22,North,359,0.3,0.0,92,0.00,,,-99.99,Meteorologica,2013-02-08 02:29:00,
2013-02-07 20:34:00,31.3,29.1,30.22,NNE,26,0.0,0.0,91,0.00,,,-99.99,Meteorologica,2013-02-08 02:34:00,
2013-02-07 20:39:00,31.2,29.1,30.22,NNE,15,0.0,0.0,92,0.00,,,-99.99,Meteorologica,2013-02-08 02:39:00,
2013-02-07 20:44:00,31.3,29.3,30.22,NE,43,0.7,3.2,92,0.00,,,-99.99,Meteorologica,2013-02-08 02:44:00,
2013-02-07 20:49:00,31.5,29.5,30.22,NE,43,0.0,0.0,92,0.00,,,-99.99,Meteorologica,2013-02-08 02:49:00,
2013-02-07 20:54:00,31.6,29.6,30.22,NNE,29,3.6,6.0,92,0.00,,,-99.99,Meteorologica,2013-02-08 02:54:00,
2013-02-07 20:59:00,31.9,29.8,30.22,NNW,347,6.0,9.2,92,0.00,,,-99.99,Meteorologica,2013-02-08 02:59:00,
2013-02-07 21:04:00,32.3,30.1,30.23,ENE,62,3.2,4.3,91,0.00,,,-99.99,Meteorologica,2013-02-08 03:04:00,
2013-02-07 21:09:00,32.4,30.2,30.23,NE,38,3.6,8.4,91,0.00,,,-99.99,Meteorologica,2013-02-08 03:09:00,
2013-02-07 21:14:00,32.6,30.4,30.23,WSW,240,4.9,6.7,91,0.00,,,-99.99,Meteorologica,2013-02-08 03:14:00,
2013-02-07 21:19:00,32.7,30.4,30.23,NNE,18,4.6,6.4,91,0.00,,,-99.99,Meteorologica,2013-02-08 03:19:00,
2013-02-07 21:24:00,32.7,30.4,30.24,NE,51,5.7,8.9,91,0.00,,,-99.99,Meteorologica,2013-02-08 03:24:00,
2013-02-07 21:29:00,32.8,30.5,30.24,North,359,3.5,5.0,91,0.00,,,-99.99,Meteorologica,2013-02-08 03:29:00,
2013-02-07 21:34:00,32.9,30.6,30.24,NE,39,1.8,3.3,91,0.00,,,-99.99,Meteorologica,2013-02-08 03:34:00,
2013-02-07 21:39:00,32.9,30.6,30.24,North,2,1.6,3.5,91,0.00,,,-99.99,Meteorologica,2013-02-08 03:39:00,
2013-02-07 21:44:00,33.0,30.7,30.24,NE,47,3.0,4.9,91,0.00,,,-99.99,Meteorologica,2013-02-08 03:44:00,
2013-02-07 21:49:00,32.9,30.6,30.24,SW,233,5.1,6.4,91,0.00,,,-99.99,Meteorologica,2013-02-08 03:49:00,
2013-02-07 21:54:00,32.8,30.5,30.24,NNW,336,4.4,5.7,91,0.00,,,-99.99,Meteorologica,2013-02-08 03:54:00,
2013-02-07 21:59:00,32.8,30.5,30.25,WSW,237,4.1,6.1,91,0.00,,,-99.99,Meteorologica,2013-02-08 03:59:00,
2013-02-07 22:04:00,32.7,30.4,30.25,NNE,19,0.5,4.3,91,0.00,,,-99.99,Meteorologica,2013-02-08 04:04:00,
2013-02-07 22:09:00,32.7,30.2,30.24,North,359,0.9,3.0,90,0.00,,,-99.99,Meteorologica,2013-02-08 04:09:00,
2013-02-07 22:14:00,32.5,30.0,30.25,NNE,23,4.4,7.8,90,0.00,,,-99.99,Meteorologica,2013-02-08 04:14:00,
2013-02-07 22:19:00,32.4,29.9,30.25,NNE,25,4.7,9.0,90,0.00,,,-99.99,Meteorologica,2013-02-08 04:19:00,
2013-02-07 22:24:00,32.4,29.9,30.25,North,351,1.8,3.2,90,0.00,,,-99.99,Meteorologica,2013-02-08 04:24:00,
2013-02-07 22:29:00,32.4,29.9,30.25,NE,50,5.8,7.4,90,0.00,,,-99.99,Meteorologica,2013-02-08 04:29:00,
2013-02-07 22:34:00,32.4,29.9,30.26,ENE,78,5.3,6.4,90,0.00,,,-99.99,Meteorologica,2013-02-08 04:34:00,
2013-02-07 22:39:00,32.2,29.7,30.26,NE,37,6.6,8.9,90,0.00,,,-99.99,Meteorologica,2013-02-08 04:39:00,
2013-02-07 22:44:00,32.0,29.5,30.26,ENE,73,6.8,8.9,90,0.00,,,-99.99,Meteorologica,2013-02-08 04:44:00,
2013-02-07 22:49:00,32.0,29.4,30.26,NNW,348,4.8,6.3,90,0.00,,,-99.99,Meteorologica,2013-02-08 04:49:00,
2013-02-07 22:54:00,32.1,29.6,30.26,NE,38,3.9,5.4,90,0.00,,,-99.99,Meteorologica,2013-02-08 04:54:00,
2013-02-07 22:59:00,32.1,29.6,30.26,North,2,3.7,5.1,90,0.00,,,-99.99,Meteorologica,2013-02-08 04:59:00,
2013-02-07 23:01:00,32.1,29.6,30.26,NNE,18,2.8,5.1,90,0.00,,,-99.99,Meteorologica,2013-02-08 05:01:00,
2013-02-07 23:02:00,32.1,29.6,30.26,NE,42,4.8,8.1,90,0.00,,,-99.99,Meteorologica,2013-02-08 05:02:00,
2013-02-07 23:03:00,32.1,29.6,30.26,WSW,239,3.0,8.1,90,0.00,,,-99.99,Meteorologica,2013-02-08 05:03:00,
2013-02-07 23:04:00,32.1,29.6,30.26,NNE,13,4.2,5.7,90,0.00,,,-99.99,Meteorologica,2013-02-08 05:04:00,
2013-02-07 23:09:00,32.2,29.7,30.27,NE,38,0.8,3.1,90,0.00,,,-99.99,Meteorologica,2013-02-08 05:09:00,
2013-02-07 23:14:00,32.2,29.7,30.27,NE,38,0.0,0.0,90,0.00,,,-99.99,Meteorologica,2013-02-08 05:14:00,
2013-02-07 23:19:00,32.2,29.7,30.27,NE,38,0.0,0.0,90,0.00,,,-99.99,Meteorologica,2013-02-08 05:19:00,
2013-02-07 23:24:00,31.9,29.4,30.27,ENE,66,7.4,10.5,90,0.00,,,-99.99,Meteorologica,2013-02-08 05:24:00,
2013-02-07 23:29:00,32.0,29.4,30.27,North,11,5.0,6.7,90,0.00,,,-99.99,Meteorologica,2013-02-08 05:29:00,
2013-02-07 23:34:00,31.7,29.1,30.27,North,8,5.9,7.2,90,0.00,,,-99.99,Meteorologica,2013-02-08 05:34:00,
2013-02-07 23:39:00,31.6,29.0,30.27,SE,128,3.6,5.8,90,0.00,,,-99.99,Meteorologica,2013-02-08 05:39:00,
2013-02-07 23:44:00,31.3,28.7,30.28,NNE,20,5.8,7.4,90,0.00,,,-99.99,Meteorologica,2013-02-08 05:44:00,
2013-02-07 23:49:00,31.2,28.6,30.27,ENE,58,5.2,6.7,90,0.00,,,-99.99,Meteorologica,2013-02-08 05:49:00,
2013-02-07 23:54:00,31.2,28.6,30.28,NE,43,3.8,5.1,90,0.00,,,-99.99,Meteorologica,2013-02-08 05:54:00,
2013-02-07 23:59:00,31.2,28.7,30.28,North,10,4.7,6.8,90,0.00,,,-99.99,Meteorologica,2013-02-08 05:59:00,